RADUGA-1 8 [-]

Last updated on Aug. 12, 2020, 5:32 a.m. UTC

1 34264U 09010A   20224.80904670 -.00000319  00000-0  00000-0 0  9997
2 34264   7.9198  59.1349 0014260 341.4291 325.2847  0.99822438 41857
UTC
Height (km)
Latitude
Longitude
Inclination
Orbital Period
UTC large
Height (km)
Speed (km/s)
/
Latitude / Longitude
Inclination (degrees)
Orbital Period (minutes)
Azimuth
Elevation
Range (km)
Doppler Factor
iOS Compass Heading
iOS Angle

Next 30 passes for location: Hong Kong

Rise time Rise Azimuth (degrees) Set time Set Azimuth (degrees) Duration Max altitude (degrees)

No matching passes for this satellites